Wind_Speed
3 2 2 1 1 1 1 0 1 1 1 1 1 1 2 2 3 3 3 2 1 1 1 1 1 1 0 1 0 0 0 1 1 2 2 2 2 3 3 3 3 3 3
4 3 2 2 1 1 2 1 0 1 1 1 1 1 1 2 2 3 2 2 1 1 1 1 1 1 1 1 1 1 1 1 2 2 2 2 2 2 2 3 3 3 3
4 4 3 2 2 2 2 2 1 1 1 1 1 1 1 1 1 2 2 1 1 1 1 1 1 2 2 2 2 1 1 1 1 1 2 2 2 1 1 2 3 3 3
5 4 4 3 2 2 2 2 2 2 1 1 1 0 0 1 1 1 1 1 1 1 1 2 2 2 2 2 2 2 2 1 1 1 1 1 1 2 2 2 2 2 3
5 4 4 3 2 2 2 2 2 2 1 1 1 1 0 1 1 0 0 1 1 1 2 2 2 2 2 2 2 2 1 1 1 1 1 1 1 1 2 2 1 2 2
5 5 5 4 3 2 3 3 2 2 2 2 1 1 1 1 1 0 1 1 1 1 1 2 2 1 1 1 1 1 1 1 1 0 1 1 1 1 1 1 1 2 2
7 6 6 5 4 4 3 3 3 3 3 3 3 2 2 2 1 1 1 1 1 1 2 1 1 1 2 2 1 0 0 0 0 0 0 1 1 1 1 1 1 1 2
8 7 7 6 5 4 4 4 3 3 3 4 4 3 3 3 2 2 2 2 2 2 2 2 2 3 2 2 1 1 1 1 1 1 1 1 1 1 1 1 1 1 1
9 9 9 8 7 6 5 4 4 4 4 4 4 3 3 4 4 3 3 3 3 3 3 3 3 3 3 3 3 2 2 2 2 2 2 2 1 1 1 1 2 2 2
10 10 10 9 8 7 6 5 5 5 5 5 5 4 4 4 5 5 5 4 4 4 4 4 4 3 3 4 3 3 3 3 2 2 2 2 2 2 2 2 2 3 3
11 11 10 10 9 8 8 7 6 6 6 6 6 6 5 5 6 6 6 5 5 5 5 4 5 5 5 4 4 4 4 3 3 3 3 3 3 3 3 4 4 4 5
11 11 11 10 10 9 8 8 7 7 7 7 8 8 7 7 6 7 7 7 7 7 6 6 6 6 6 6 5 5 5 4 4 4 4 4 4 4 5 5 6 6 6
11 11 12 12 11 11 10 9 9 8 8 8 8 9 8 8 8 8 8 8 8 8 8 8 8 8 7 7 7 7 6 6 6 6 7 7 7 7 7 8 8 8 8
12 12 13 13 12 12 12 11 10 10 9 10 10 10 10 10 9 9 10 9 9 9 9 10 10 10 10 9 9 9 9 9 9 9 9 9 9 9 10 10 10 10 11
12 12 13 13 14 14 14 13 13 12 12 11 11 11 11 11 11 10 11 11 11 11 11 11 11 11 11 11 11 11 11 11 12 12 12 11 11 12 12 12 13 13 13
12 13 13 14 14 15 14 14 14 13 12 12 12 12 13 13 13 12 12 12 12 12 12 12 13 13 13 12 12 13 13 13 13 14 13 13 14 14 14 15 15 16 16
13 13 14 14 15 15 15 15 14 15 14 14 13 14 14 14 14 14 14 14 14 14 14 14 14 14 14 14 14 14 14 14 15 16 16 16 17 17 17 18 18 19 19
13 14 14 14 15 17 16 16 16 16 16 16 15 15 15 15 15 15 15 16 16 16 16 16 16 16 15 15 15 15 16 16 17 17 18 19 20 20 20 21 21 22 22
13 13 14 15 15 16 17 17 17 17 18 17 17 16 16 16 16 16 16 17 17 17 17 17 17 17 16 17 17 17 18 19 20 20 21 22 23 23 23 24 24 25 26
14 14 15 16 16 16 17 17 17 18 18 18 18 18 17 18 18 18 17 18 18 18 18 18 18 18 19 19 20 20 21 22 23 23 23 25 25 26 27 27 28 28 29
14 14 15 16 16 17 17 18 18 18 18 18 19 19 19 19 19 19 19 19 20 20 20 20 20 21 22 22 23 23 24 25 25 26 26 27 27 28 30 31 31 31 32
16 16 15 16 16 17 17 17 18 19 19 19 20 20 20 21 21 21 20 20 20 20 21 21 21 22 23 24 25 26 27 27 28 29 29 30 31 31 32 33 34 33 34
18 17 16 16 17 17 18 19 19 18 18 19 21 21 21 21 21 21 22 22 22 21 22 23 23 24 25 26 27 28 29 29 30 31 31 32 32 33 34 35 35 35 35
16 16 17 18 18 18 18 19 18 18 18 19 20 20 20 20 21 22 23 23 23 23 24 24 25 26 27 28 29 30 30 30 31 32 33 33 34 34 35 36 37 37 38
16 16 16 17 18 18 18 19 19 19 18 19 19 19 20 21 21 22 22 23 23 24 24 25 26 27 28 30 30 31 31 32 33 33 35 35 35 36 36 37 39 40 40
16 16 17 17 17 17 17 18 19 19 19 19 19 19 20 21 22 22 22 23 24 25 26 27 28 29 29 30 31 32 33 34 34 35 36 36 36 38 38 39 41 42 43
Wind_Direction
262 272 278 264 307 329 345 102 126 100 70 41 59 39 11 9 22 26 27 28 32 51 61 49 88 98 344 344 329 260 169 199 193 196 211 211 217 225 228 229 228 237 244
256 256 269 266 280 301 304 286 282 25 4 360 360 359 359 354 3 10 12 5 8 39 73 79 58 65 62 46 73 125 163 189 185 191 200 210 211 210 228 237 241 241 246
247 243 252 270 287 282 275 273 278 306 302 307 336 351 8 6 7 4 13 29 34 77 94 100 87 86 66 66 79 115 148 167 178 189 202 210 211 211 215 239 244 240 241
243 235 240 262 284 276 272 274 280 290 290 276 276 291 6 19 7 11 34 60 75 115 110 106 110 114 101 81 76 85 116 151 175 188 205 205 230 234 221 236 246 235 234
235 238 240 252 266 258 267 282 282 281 262 248 228 222 140 330 315 331 99 99 110 122 132 143 129 125 120 97 81 85 112 124 140 179 206 203 226 223 211 220 227 226 232
234 237 239 249 262 260 269 274 277 276 242 234 234 238 247 300 318 218 162 155 144 150 142 150 159 160 152 127 105 96 116 127 109 138 207 215 218 201 187 209 224 241 247
235 234 237 245 252 257 264 274 275 267 248 238 233 236 259 261 260 210 202 202 210 206 196 181 195 197 186 185 182 205 225 222 150 122 229 242 239 220 209 233 240 246 251
234 233 233 239 245 250 259 265 263 258 245 238 233 233 242 245 237 225 220 215 221 229 227 223 229 223 215 212 217 236 237 242 253 273 294 272 250 230 245 262 262 266 277
234 234 234 233 238 245 251 253 250 248 242 235 232 239 244 245 232 230 231 232 232 238 236 243 246 225 218 221 234 239 238 239 267 282 283 263 249 259 270 284 283 284 294
232 232 234 233 235 239 243 249 250 243 240 236 236 239 244 248 236 235 237 238 236 243 244 248 236 230 231 231 233 240 237 240 256 271 261 250 250 257 272 281 291 294 294
234 233 233 228 230 235 239 244 249 245 245 243 242 243 242 245 241 238 240 240 236 240 245 239 237 239 238 238 241 246 246 248 249 257 248 249 258 265 271 280 285 288 292
235 232 230 228 230 234 237 241 246 248 248 247 247 246 246 246 243 237 239 241 240 241 242 241 245 247 245 248 252 254 251 250 255 258 254 257 262 268 273 277 283 285 288
233 230 232 232 232 234 239 244 247 249 249 250 250 249 249 248 246 240 237 239 243 244 244 244 248 250 251 253 256 258 253 256 258 261 264 266 268 273 275 278 281 285 286
234 233 233 234 234 235 240 243 246 249 250 252 251 252 253 247 247 243 241 243 245 245 246 247 250 252 255 257 258 259 258 261 265 267 270 271 274 278 280 282 284 287 288
233 233 234 238 237 238 243 244 245 248 251 253 252 252 253 248 248 247 245 245 247 248 250 253 255 257 257 259 260 262 264 265 269 273 275 275 278 280 281 283 284 286 288
237 240 240 240 240 240 244 246 244 246 250 253 252 253 253 251 250 251 250 248 249 254 256 256 254 257 260 261 261 263 264 265 268 271 274 276 277 280 282 282 283 284 286
239 243 242 240 240 240 243 246 246 247 253 253 253 256 256 255 253 254 253 252 251 255 257 257 255 257 260 262 264 266 269 271 271 272 272 274 276 278 281 282 283 284 285
242 244 244 241 243 242 244 247 248 251 255 255 255 256 258 257 257 256 255 253 253 256 259 257 257 258 260 264 266 268 271 273 275 276 275 274 276 278 280 282 284 285 285
243 243 242 245 248 247 247 249 252 254 255 253 254 256 258 259 259 259 258 256 256 258 259 258 258 260 262 265 267 270 274 276 277 278 278 277 278 278 279 281 283 284 284
245 246 244 247 250 251 250 251 256 256 254 253 254 255 257 258 258 260 260 259 257 258 258 257 258 262 265 268 270 273 275 277 278 280 280 279 280 279 279 281 282 283 283
246 248 249 250 252 253 253 255 257 258 258 257 256 256 257 257 258 259 260 262 260 259 260 261 262 266 269 271 272 273 275 277 279 280 280 280 281 282 282 282 282 283 283
247 249 250 252 253 253 254 258 261 260 260 259 257 258 258 258 258 259 261 264 264 262 262 264 266 269 272 274 275 276 276 278 279 280 280 281 281 281 282 283 282 283 284
250 249 251 252 255 258 259 259 262 263 264 263 261 260 258 257 258 260 264 266 266 266 265 266 268 271 274 276 278 279 279 280 280 280 281 281 280 282 283 283 284 283 284
250 251 252 254 256 259 261 263 262 264 266 267 263 260 258 258 261 263 264 266 266 268 268 269 271 273 275 277 279 280 282 282 283 282 281 280 281 282 283 284 284 284 285
254 253 254 256 258 260 262 263 264 265 265 267 265 261 260 259 261 263 264 266 268 270 272 273 275 276 278 279 280 281 282 283 285 285 283 282 281 281 282 282 283 284 285
253 255 253 254 258 262 265 267 266 267 267 267 264 263 264 264 263 264 266 268 270 272 274 276 278 280 280 281 282 282 283 283 284 285 284 283 283 282 282 282 283 284 284
Height
5901 5902 5902 5902 5901 5901 5901 5901 5902 5901 5901 5900 5900 5900 5899 5899 5898 5898 5897 5896 5896 5896 5896 5895 5895 5894 5894 5893 5893 5893 5892 5892 5892 5891 5891 5891 5891 5891 5890 5890 5890 5890 5890
5900 5901 5901 5901 5901 5901 5901 5901 5901 5901 5901 5900 5900 5899 5899 5899 5898 5898 5897 5896 5896 5896 5896 5895 5895 5894 5894 5893 5893 5892 5892 5892 5891 5891 5891 5891 5891 5890 5890 5890 5890 5890 5890
5900 5900 5901 5901 5901 5901 5901 5901 5900 5900 5900 5900 5900 5899 5899 5899 5898 5898 5897 5897 5896 5896 5896 5895 5895 5894 5894 5893 5892 5892 5892 5892 5891 5891 5891 5891 5890 5890 5890 5889 5889 5889 5889
5898 5899 5900 5900 5900 5900 5900 5900 5900 5900 5900 5900 5899 5899 5899 5899 5898 5898 5897 5897 5896 5896 5896 5895 5895 5894 5894 5893 5893 5892 5892 5892 5891 5891 5891 5890 5890 5889 5889 5889 5888 5888 5888
5897 5898 5899 5900 5900 5900 5900 5900 5900 5900 5899 5899 5899 5899 5899 5899 5898 5897 5897 5896 5896 5896 5896 5895 5895 5895 5894 5894 5893 5893 5892 5892 5891 5891 5890 5890 5889 5889 5889 5888 5888 5888 5888
5896 5897 5898 5898 5899 5899 5899 5899 5899 5899 5899 5899 5899 5899 5899 5899 5898 5897 5897 5896 5896 5896 5895 5895 5895 5895 5894 5894 5894 5893 5893 5892 5892 5891 5890 5890 5889 5889 5889 5888 5888 5888 5888
5895 5896 5896 5897 5898 5898 5898 5899 5899 5899 5898 5898 5899 5899 5898 5898 5898 5897 5897 5896 5896 5896 5896 5895 5895 5895 5894 5894 5894 5893 5893 5892 5892 5891 5890 5890 5890 5889 5889 5888 5888 5888 5887
5893 5893 5895 5895 5896 5896 5897 5897 5897 5898 5898 5898 5898 5898 5898 5898 5897 5897 5897 5897 5896 5896 5895 5895 5895 5895 5894 5894 5894 5893 5893 5892 5892 5891 5890 5890 5890 5889 5889 5888 5888 5887 5887
5891 5891 5892 5894 5894 5895 5895 5896 5896 5896 5897 5897 5897 5897 5897 5897 5897 5897 5897 5896 5896 5896 5896 5895 5895 5894 5894 5894 5893 5893 5893 5892 5892 5891 5890 5890 5889 5889 5889 5888 5887 5887 5886
5888 5889 5890 5891 5892 5893 5894 5894 5895 5895 5895 5895 5896 5896 5896 5896 5896 5896 5896 5896 5895 5895 5895 5895 5894 5894 5893 5893 5893 5893 5892 5892 5891 5890 5890 5889 5889 5888 5888 5888 5887 5886 5885
5886 5887 5888 5889 5890 5891 5891 5892 5893 5893 5894 5894 5894 5894 5894 5895 5895 5895 5895 5895 5895 5894 5894 5894 5893 5893 5893 5892 5892 5892 5891 5891 5890 5890 5889 5889 5888 5888 5887 5887 5886 5885 5884
5883 5885 5886 5887 5888 5889 5889 5890 5891 5891 5892 5892 5892 5893 5893 5893 5893 5893 5893 5893 5893 5893 5893 5893 5892 5892 5891 5891 5891 5891 5890 5890 5889 5889 5888 5888 5887 5886 5886 5885 5884 5883 5882
5881 5882 5883 5884 5885 5886 5887 5888 5888 5889 5889 5890 5890 5890 5890 5891 5891 5891 5891 5891 5891 5892 5892 5891 5891 5890 5890 5890 5889 5889 5889 5888 5888 5888 5887 5886 5886 5885 5884 5883 5882 5881 5880
5878 5879 5880 5881 5882 5883 5884 5885 5886 5886 5887 5887 5887 5888 5888 5888 5888 5889 5889 5889 5889 5890 5889 5889 5889 5889 5888 5888 5888 5887 5887 5886 5886 5886 5885 5884 5884 5883 5882 5881 5880 5879 5878
5875 5876 5877 5878 5879 5880 5880 5881 5882 5883 5884 5884 5884 5885 5885 5885 5885 5886 5886 5887 5887 5887 5887 5887 5887 5887 5886 5886 5885 5885 5885 5884 5883 5883 5882 5882 5881 5880 5879 5878 5877 5876 5874
5872 5873 5874 5875 5875 5876 5877 5878 5879 5880 5880 5881 5881 5881 5881 5882 5882 5882 5883 5883 5884 5884 5884 5884 5884 5884 5883 5883 5882 5882 5881 5881 5880 5880 5879 5878 5877 5876 5875 5874 5873 5872 5870
5869 5870 5870 5871 5872 5873 5874 5874 5875 5876 5877 5877 5877 5878 5878 5878 5879 5879 5879 5880 5880 5880 5880 5881 5880 5880 5880 5879 5879 5878 5878 5877 5876 5876 5875 5874 5873 5872 5871 5870 5868 5867 5866
5865 5866 5867 5868 5869 5869 5870 5871 5871 5872 5873 5873 5874 5874 5874 5874 5875 5875 5875 5876 5876 5876 5876 5876 5876 5876 5876 5875 5875 5874 5874 5873 5872 5871 5870 5869 5868 5867 5866 5864 5863 5861 5860
5862 5862 5864 5864 5865 5866 5866 5867 5867 5868 5868 5869 5869 5870 5870 5870 5871 5870 5871 5871 5871 5871 5871 5871 5872 5872 5871 5871 5870 5870 5869 5868 5867 5866 5865 5864 5862 5861 5859 5858 5856 5855 5853
5858 5859 5859 5860 5861 5861 5862 5863 5863 5863 5864 5864 5865 5865 5865 5866 5866 5866 5866 5866 5866 5866 5867 5867 5867 5867 5867 5866 5866 5865 5864 5863 5862 5860 5859 5858 5856 5854 5852 5851 5849 5847 5846
5854 5855 5855 5856 5856 5857 5858 5858 5859 5859 5859 5859 5860 5860 5860 5860 5861 5861 5861 5861 5861 5861 5861 5862 5862 5862 5861 5861 5860 5859 5858 5857 5856 5854 5852 5851 5849 5847 5845 5843 5841 5839 5838
5850 5851 5851 5852 5852 5853 5853 5854 5854 5854 5854 5854 5854 5854 5855 5855 5855 5855 5855 5856 5856 5856 5856 5856 5856 5856 5855 5854 5853 5852 5851 5850 5849 5847 5845 5843 5841 5839 5837 5835 5832 5830 5828
5846 5847 5847 5848 5848 5849 5849 5849 5849 5849 5849 5849 5849 5848 5848 5849 5850 5850 5850 5850 5850 5850 5850 5850 5850 5849 5848 5847 5846 5845 5843 5842 5841 5839 5837 5835 5832 5830 5828 5826 5823 5821 5819
5841 5842 5842 5842 5843 5844 5844 5844 5844 5844 5844 5843 5843 5842 5843 5843 5844 5844 5844 5844 5844 5844 5844 5843 5843 5842 5841 5840 5838 5837 5836 5834 5832 5830 5827 5826 5823 5821 5819 5817 5814 5812 5809
5837 5837 5838 5838 5839 5839 5839 5839 5839 5839 5838 5838 5837 5837 5837 5838 5838 5838 5838 5838 5838 5837 5837 5836 5836 5834 5833 5832 5830 5829 5827 5825 5823 5821 5817 5816 5814 5812 5810 5807 5804 5801 5798
5832 5832 5833 5834 5834 5835 5834 5834 5834 5834 5833 5833 5832 5832 5832 5832 5832 5831 5831 5831 5831 5830 5830 5829 5828 5827 5825 5823 5821 5820 5818 5816 5814 5811 5808 5805 5803 5801 5799 5796 5793 5789 5786